Location: West Chester
(39.9610°N, 75.6060°W)
Time: 19:56:02
(UTC-04:00)

ARIANE 6 FM1 Upper Stage - Pass Details

Date: 19 September 2024
Orbit: 563 x 594 km, 62.0° (Epoch: 11 October)

Event Time Altitude Azimuth Distance (km) Brightness Sun altitude
Rises 20:30:51 0° 202° (SSW) 2,760 6.3 -17.3°
Reaches altitude 10° 20:33:06 10° 197° (SSW) 1,872 5.3 -17.7°
Maximum altitude 20:37:12 51° 121° (ESE) 727 2.8 -18.5°
Enters shadow 20:38:30 37° 70° (ENE) 913 3.3 -18.7°
